Temperature
7 6 6 6 7 8 7 7 7 8 9 9 8 8 8 8 8 8 9 9 10 11 11 12 12 12 12 12 12 12 12 12 12 11 11 11 11 11 11 10 10 10 10 10
6 6 7 7 7 7 7 7 7 8 8 9 8 8 8 7 8 8 9 9 9 10 10 11 11 11 12 12 12 12 12 12 11 11 11 11 11 11 10 10 10 10 10 10
6 6 7 7 7 7 7 7 7 7 8 8 8 8 8 8 8 8 8 9 9 9 10 10 11 11 11 11 11 12 12 11 11 11 11 11 10 10 10 10 10 10 9 9
5 6 7 7 6 7 7 7 7 7 7 6 8 7 7 7 7 7 7 8 8 9 9 10 10 10 11 11 11 11 11 11 11 11 11 10 10 10 10 10 10 9 9 9
5 6 6 6 6 7 6 7 7 6 6 6 6 6 6 6 6 6 6 7 8 8 9 9 10 10 10 10 10 10 10 10 10 10 10 10 10 10 10 9 9 9 9 9
5 5 6 6 6 7 6 6 6 5 5 6 6 6 6 5 6 6 6 7 7 8 8 9 9 9 10 10 10 10 10 10 10 10 10 9 9 9 9 9 9 9 9 9
4 5 5 6 5 6 6 5 5 5 5 6 5 6 6 6 5 6 6 6 6 7 7 8 8 9 9 9 9 9 9 10 9 9 9 9 9 9 9 9 9 9 9 8
3 4 4 5 5 5 5 5 5 5 5 5 5 5 5 5 5 6 6 6 6 6 7 7 8 8 8 9 9 9 9 9 9 9 9 9 9 9 8 8 8 8 8 8
3 3 4 5 5 5 5 4 5 4 4 5 5 4 5 5 4 4 5 5 5 6 7 7 7 8 8 8 8 8 8 8 8 8 8 8 8 8 8 8 8 8 8 8
2 2 3 4 5 5 5 4 3 4 5 5 6 5 4 5 4 4 3 4 5 6 6 6 7 7 7 7 7 7 7 8 8 8 8 8 8 8 8 8 8 8 8 7
2 2 2 3 4 4 4 4 3 3 3 4 5 5 5 4 4 3 3 4 4 5 5 6 6 6 6 7 7 7 7 7 7 7 7 7 7 7 8 7 7 7 7 7
2 1 1 2 3 3 4 3 3 3 3 2 3 5 4 3 3 3 3 3 4 4 5 5 5 6 6 6 6 6 6 6 6 6 7 7 7 7 7 7 7 7 7 7
1 1 1 2 2 2 2 3 2 2 2 1 3 5 4 3 3 3 3 3 3 4 4 4 4 5 5 5 5 5 5 5 5 6 6 6 6 6 6 6 6 6 6 6
2 0 1 2 2 1 1 2 2 2 2 2 3 4 4 3 3 2 2 3 3 3 3 4 4 4 4 4 4 4 5 5 5 5 5 5 6 6 6 6 6 6 6 6
1 0 0 1 1 1 2 2 2 2 2 2 3 3 3 3 2 2 2 2 2 2 3 3 3 3 3 4 4 4 4 4 4 5 5 5 5 5 5 5 5 5 5 5
0 -0 0 1 1 1 2 2 2 2 2 2 3 3 2 2 2 2 2 2 2 2 3 3 3 3 3 3 3 4 4 4 4 4 4 5 5 5 5 5 5 5 5 5
-1 -0 0 0 1 2 1 1 1 1 1 2 3 3 1 1 1 1 2 2 2 2 2 3 3 3 3 3 3 3 4 4 4 4 4 4 4 4 4 4 4 4 4 4
-1 -1 -1 -1 0 0 1 1 1 1 1 0 1 1 1 1 2 2 2 2 2 2 2 2 2 3 3 3 3 3 3 3 3 3 4 4 4 4 4 4 4 4 4 4
-1 -1 -2 -2 -1 -0 1 0 -0 0 0 -0 0 0 0 1 1 1 2 2 2 2 2 2 2 2 2 3 3 3 3 3 3 3 3 3 4 4 4 4 4 4 3 4
-1 -2 -2 -2 -1 0 1 0 0 1 0 -0 -1 -1 -1 -0 -0 1 2 2 2 2 2 2 2 2 2 2 2 2 2 3 3 3 3 3 3 3 3 3 3 3 3 3
-2 -2 -2 -2 -2 -1 -1 -1 0 1 1 -0 -1 -1 -1 -1 -0 0 1 1 1 1 2 2 2 2 2 2 2 2 2 2 2 2 2 2 3 3 3 3 3 3 3 3
-3 -3 -3 -3 -2 -1 -1 -1 -1 -1 -1 -1 -1 -1 -1 -1 -1 -1 -0 0 0 1 1 1 1 1 1 1 1 1 2 2 2 2 2 2 2 2 2 2 2 2 2 2
-3 -3 -3 -3 -1 -1 -1 -1 -1 -1 -1 -1 -1 -1 -1 -2 -2 -1 -1 -1 -0 0 0 1 1 1 1 1 1 1 1 1 1 2 2 2 2 2 2 2 2 2 2 2
-3 -3 -3 -3 -2 -2 -1 -1 -1 -1 -1 -1 -1 -1 -2 -2 -2 -2 -2 -1 -1 -1 -0 -0 -0 0 0 0 0 0 1 1 1 1 1 1 1 1 1 1 2 2 1 1
-4 -4 -4 -3 -3 -2 -1 -1 -1 -1 -1 -2 -2 -2 -2 -2 -2 -2 -2 -2 -2 -1 -1 -1 -1 -0 -0 -0 -0 -0 -0 0 0 1 1 1 1 1 1 1 1 1 1 1
-5 -4 -4 -3 -3 -3 -2 -2 -2 -2 -2 -2 -2 -2 -2 -2 -3 -3 -2 -2 -2 -2 -2 -1 -1 -1 -1 -1 -1 -1 -1 -0 -0 -0 0 0 0 0 0 0 0 0 0 0
Wind_Speed
2 3 6 7 6 4 4 4 3 4 2 2 5 7 6 3 3 4 4 4 5 6 4 2 2 3 3 3 4 5 5 4 4 3 3 2 2 1 1 1 1 1 1 1
2 5 6 4 3 3 4 3 2 2 1 2 3 7 5 5 5 6 6 6 5 4 1 1 2 2 3 4 4 4 5 5 5 4 3 2 2 2 2 1 1 1 1 1
5 3 5 5 4 4 3 6 4 2 2 1 1 5 4 4 2 1 2 3 3 4 4 3 2 2 2 3 5 5 5 5 4 3 3 2 2 2 1 0 1 1 1 2
2 1 4 5 4 4 5 4 3 2 1 2 2 4 5 3 2 3 4 3 3 3 3 3 3 2 3 4 3 4 4 4 4 4 5 5 3 2 3 2 2 2 1 1
2 2 4 6 5 4 3 2 2 2 2 1 2 3 6 1 4 6 5 5 4 3 3 3 3 3 2 3 2 3 3 3 3 4 5 5 3 2 1 1 1 1 1 1
1 1 1 3 2 4 3 3 3 2 2 3 6 6 5 3 4 5 5 4 3 2 1 1 0 1 0 1 2 2 3 3 3 4 4 4 4 2 2 1 2 1 1 1
2 2 1 2 3 2 4 5 2 0 2 5 3 4 6 4 3 4 5 4 2 2 2 1 1 1 1 1 2 2 2 2 3 3 3 3 3 3 4 3 3 2 1 2
1 1 1 1 3 4 4 5 5 4 5 3 2 5 5 3 3 3 2 1 1 1 1 1 1 1 1 1 2 2 2 1 2 3 3 2 2 2 2 2 2 3 3 3
2 2 3 2 0 5 4 2 2 3 1 1 4 4 5 3 5 5 3 2 1 0 0 0 0 1 1 1 2 2 2 1 1 2 2 2 2 2 2 1 1 2 2 2
2 1 3 3 3 3 3 5 4 3 3 3 3 3 3 4 4 3 3 2 1 1 1 1 1 1 1 1 1 1 1 2 1 1 2 1 1 1 1 1 1 1 2 1
1 2 2 2 1 2 3 3 3 3 3 3 2 4 2 3 2 2 2 2 1 1 1 1 2 2 2 2 2 2 1 1 1 0 1 1 1 1 1 1 1 1 1 1
1 2 0 2 2 0 1 3 4 4 2 2 2 4 2 2 2 1 1 1 2 2 2 2 2 3 3 3 2 1 1 1 1 1 0 1 1 1 0 0 1 1 1 1
1 3 2 3 3 2 1 0 2 4 3 3 3 5 3 4 4 3 1 1 2 3 3 3 3 3 3 3 2 1 1 1 1 1 1 1 1 0 1 1 1 1 1 1
2 2 3 5 4 3 2 2 2 4 3 4 6 6 6 5 4 4 3 2 2 2 2 3 3 3 3 3 3 2 2 1 1 1 1 1 0 1 1 1 1 1 1 1
3 1 1 2 2 2 2 4 4 6 6 6 6 5 7 5 3 2 1 2 2 2 3 2 2 3 3 3 3 3 3 2 1 0 0 1 1 1 1 0 1 1 0 1
2 1 0 2 1 0 3 5 6 6 5 6 5 7 4 3 1 1 1 0 0 1 2 2 2 3 3 3 3 3 3 3 1 1 1 1 1 1 1 1 0 0 0 1
0 2 1 2 3 2 4 5 6 4 4 5 7 6 2 2 2 2 2 2 1 2 3 3 3 2 2 3 3 3 3 3 2 1 1 1 1 1 1 1 1 0 1 0
2 2 2 0 2 3 5 2 3 4 3 4 3 3 3 4 3 3 2 2 2 2 3 3 3 3 3 3 3 3 3 2 2 2 2 2 1 1 1 1 1 1 1 1
3 4 2 2 2 5 5 2 1 2 4 2 3 3 3 3 3 3 2 2 3 3 3 3 3 3 3 2 2 2 2 2 2 2 2 2 1 1 1 1 1 1 1 1
2 3 3 3 2 4 4 4 2 1 3 2 1 2 3 3 2 4 2 2 3 3 2 2 2 3 3 3 2 2 2 2 2 3 2 2 2 1 1 2 2 1 1 1
1 1 2 3 3 5 5 5 1 2 4 4 2 2 2 2 4 4 4 4 3 3 2 2 1 2 2 2 2 2 2 3 3 3 2 2 2 1 1 1 1 1 0 0
2 2 2 2 2 5 4 2 2 3 3 3 3 3 3 3 3 3 3 3 3 3 3 2 1 2 3 2 2 2 3 4 3 2 2 2 2 2 1 1 1 1 1 1
3 4 3 5 5 3 2 2 2 2 3 3 3 3 2 2 3 3 3 3 3 3 2 2 2 2 3 2 1 2 4 3 2 2 2 2 3 2 2 1 1 1 1 1
3 1 2 3 5 4 4 3 3 3 3 3 3 2 1 2 3 3 3 4 3 3 3 2 2 2 3 3 2 2 3 2 1 1 1 2 2 3 3 2 1 1 1 1
4 2 2 4 5 5 4 3 3 3 3 3 3 2 1 1 3 3 3 4 3 3 3 2 1 2 3 3 3 3 2 2 1 1 1 1 2 2 2 2 2 1 1 0
3 4 4 5 4 3 5 4 3 3 3 3 3 4 3 2 2 3 3 3 3 3 3 2 2 2 2 2 2 2 2 1 1 1 1 1 1 1 2 2 2 4 3 4
Wind_Direction
149 143 195 203 199 196 175 179 212 238 248 201 233 256 259 251 226 235 240 235 232 235 238 191 179 168 162 160 167 174 165 163 155 148 151 154 183 199 203 221 202 184 184 174
112 212 213 175 160 146 159 181 206 292 293 204 248 269 258 236 227 225 227 235 234 237 242 199 177 160 168 178 177 174 177 174 174 176 172 169 168 191 203 221 237 210 205 194
187 213 173 155 162 167 200 186 197 217 346 351 304 294 263 259 248 261 253 244 234 216 213 212 197 188 179 184 187 186 185 177 174 161 137 99 79 59 61 263 269 275 251 222
196 222 165 161 191 177 218 200 189 189 142 276 182 261 277 263 290 286 275 262 248 241 222 213 200 192 198 206 193 185 181 172 165 156 159 157 167 186 206 208 229 258 255 236
233 176 169 186 207 180 191 171 190 197 165 258 222 215 282 306 278 271 265 255 252 237 210 207 205 203 207 196 179 182 169 163 157 161 167 168 175 189 186 181 211 236 253 250
316 318 192 197 190 157 135 82 49 66 107 236 212 186 275 242 243 277 266 256 239 220 197 181 141 112 132 134 136 134 145 161 159 158 161 169 173 168 162 195 207 232 261 249
3 2 0 96 105 114 120 117 89 61 215 242 183 184 247 262 250 250 253 246 223 191 162 138 99 70 60 108 133 133 136 153 162 159 167 179 178 179 188 201 207 216 234 250
93 261 298 30 150 170 181 154 162 187 209 260 175 217 248 293 306 297 274 236 106 110 160 179 181 164 179 173 157 146 153 150 167 171 179 177 170 182 207 210 211 214 227 236
136 257 334 342 24 131 141 173 150 128 127 217 238 266 298 340 354 360 10 37 70 172 185 169 65 88 129 163 172 173 166 157 174 183 177 170 172 186 209 232 226 226 245 255
133 210 311 318 52 34 142 139 105 129 163 231 267 256 267 303 315 337 359 353 336 14 41 49 44 54 63 102 114 120 141 166 168 180 185 179 193 208 209 202 246 252 261 254
85 132 327 17 129 170 95 112 118 131 161 169 236 267 242 264 294 300 307 330 359 12 16 37 33 30 51 62 72 82 77 67 64 97 174 158 183 191 173 199 259 274 269 244
58 108 318 278 294 318 134 155 143 153 214 188 195 269 333 308 319 323 310 341 11 21 20 47 57 51 45 47 45 48 49 43 22 5 96 160 148 124 126 265 284 288 274 250
106 98 59 5 352 10 39 150 143 131 128 161 186 267 345 14 23 25 36 34 33 36 36 46 53 49 36 30 20 8 15 11 11 27 41 71 96 131 246 271 286 287 275 268
77 101 168 195 228 203 229 244 172 142 176 206 225 259 308 333 343 355 10 29 38 41 44 45 39 30 23 19 10 359 340 349 17 37 48 21 304 246 254 268 278 267 253 256
81 139 214 257 270 203 228 241 211 201 200 203 233 245 277 292 291 306 353 38 40 25 20 22 22 17 11 7 359 355 348 344 354 37 21 306 318 304 294 308 299 285 278 288
57 148 124 315 316 266 293 269 230 231 222 231 257 273 283 289 334 348 326 95 22 346 342 346 1 8 357 349 341 342 339 333 339 331 302 319 332 342 333 305 326 341 312 312
54 136 107 299 327 8 288 247 207 206 209 202 231 250 289 304 271 261 255 245 263 307 326 323 323 315 316 316 323 324 319 333 352 339 324 325 320 324 334 356 24 329 290 283
166 129 135 150 47 241 253 284 197 207 249 228 241 264 265 270 282 281 254 219 257 300 308 310 318 321 322 326 334 339 343 357 357 351 337 326 325 330 350 18 355 310 297 258
172 149 136 142 209 277 298 308 155 204 278 267 248 293 322 350 347 308 264 229 250 265 274 286 305 315 319 325 334 345 355 359 353 340 323 311 305 303 311 302 290 293 293 274
87 115 132 141 179 237 275 315 302 145 280 331 305 292 324 16 304 282 320 322 316 318 317 321 334 343 337 329 342 348 338 337 321 311 312 312 298 269 266 272 279 288 272 263
69 82 169 182 219 263 292 311 37 167 265 319 298 281 272 238 245 283 310 310 315 322 327 341 353 342 326 333 346 336 331 311 309 317 327 340 331 299 278 296 301 288 311 39
181 177 193 154 200 264 317 65 161 247 311 321 309 300 286 286 297 305 312 316 332 338 336 343 349 342 336 339 342 326 314 314 324 330 346 355 356 347 356 23 4 24 79 77
210 200 195 196 217 263 271 224 281 301 304 303 302 307 301 302 308 320 326 325 328 331 329 334 340 340 338 336 325 306 313 326 340 1 6 7 6 9 17 51 53 42 56 70
283 244 198 253 269 277 283 289 310 302 288 297 301 303 295 297 309 321 327 328 329 327 328 330 345 340 326 325 325 319 325 338 1 11 4 14 24 22 24 25 39 57 56 57
249 214 227 260 287 310 306 300 306 315 322 328 331 323 293 285 306 313 319 319 317 321 327 323 308 302 305 317 330 341 344 351 3 13 12 14 28 29 29 29 28 34 16 68
219 201 204 241 261 262 280 309 326 323 318 315 321 325 324 298 296 312 317 319 319 319 320 319 317 315 315 323 332 341 340 338 10 23 18 19 31 29 33 34 30 34 38 39
Height
1455 1459 1461 1462 1463 1464 1468 1471 1472 1471 1468 1469 1470 1470 1469 1468 1468 1469 1469 1469 1470 1472 1474 1476 1477 1479 1481 1483 1485 1487 1489 1491 1493 1494 1496 1497 1498 1499 1500 1500 1501 1501 1501 1501
1458 1459 1458 1459 1462 1464 1467 1471 1472 1471 1468 1469 1470 1469 1467 1466 1466 1465 1466 1467 1468 1469 1470 1472 1474 1476 1478 1480 1482 1484 1486 1488 1489 1491 1493 1494 1496 1497 1497 1498 1498 1499 1499 1499
1456 1457 1456 1459 1462 1464 1466 1469 1471 1472 1470 1469 1470 1469 1466 1463 1463 1464 1464 1465 1465 1466 1467 1469 1471 1473 1474 1476 1478 1480 1482 1484 1486 1488 1490 1492 1493 1494 1494 1495 1495 1496 1496 1497
1456 1455 1456 1458 1461 1462 1466 1465 1467 1470 1474 1477 1473 1476 1467 1464 1463 1462 1462 1462 1462 1463 1464 1466 1468 1469 1471 1474 1476 1478 1479 1481 1483 1485 1486 1488 1488 1489 1490 1491 1492 1493 1494 1494
1456 1455 1456 1458 1460 1461 1464 1464 1467 1470 1474 1478 1476 1478 1470 1465 1464 1461 1460 1459 1460 1461 1462 1463 1465 1467 1469 1471 1473 1474 1476 1478 1480 1481 1483 1484 1486 1487 1488 1489 1490 1491 1491 1491
1457 1456 1457 1457 1458 1460 1463 1466 1469 1472 1475 1478 1474 1478 1472 1467 1462 1458 1457 1457 1457 1459 1460 1461 1463 1465 1466 1468 1470 1471 1473 1474 1476 1478 1480 1481 1483 1484 1485 1486 1487 1487 1488 1488
1459 1458 1457 1457 1460 1462 1463 1469 1477 1477 1479 1475 1472 1473 1469 1460 1458 1456 1455 1455 1455 1457 1458 1460 1461 1462 1464 1465 1467 1468 1470 1471 1473 1475 1477 1478 1480 1481 1482 1483 1484 1484 1485 1485
1464 1464 1460 1458 1459 1462 1464 1467 1475 1477 1477 1476 1474 1473 1464 1458 1456 1454 1454 1453 1454 1455 1457 1458 1460 1461 1462 1463 1464 1466 1467 1469 1470 1472 1474 1476 1477 1479 1480 1481 1481 1482 1482 1483
1466 1465 1461 1459 1459 1460 1465 1468 1469 1477 1480 1478 1474 1471 1462 1457 1455 1454 1453 1453 1453 1454 1456 1457 1458 1459 1460 1461 1462 1464 1465 1466 1468 1470 1471 1473 1474 1476 1477 1478 1479 1479 1480 1480
1464 1468 1463 1461 1459 1461 1463 1467 1473 1476 1476 1473 1469 1469 1467 1458 1457 1455 1454 1454 1454 1455 1456 1456 1457 1458 1459 1460 1461 1462 1464 1465 1466 1467 1469 1470 1471 1473 1474 1475 1475 1476 1477 1477
1464 1469 1468 1464 1464 1465 1467 1469 1471 1476 1476 1476 1474 1469 1459 1458 1457 1456 1455 1455 1455 1455 1456 1456 1457 1458 1459 1459 1460 1461 1462 1463 1464 1465 1466 1468 1469 1470 1471 1472 1472 1473 1474 1474
1465 1470 1473 1469 1466 1465 1465 1467 1471 1474 1478 1480 1477 1471 1458 1458 1457 1456 1456 1456 1456 1456 1456 1457 1457 1457 1458 1459 1459 1460 1461 1461 1462 1463 1464 1465 1466 1467 1468 1469 1469 1470 1470 1471
1466 1471 1475 1472 1473 1470 1469 1469 1469 1472 1478 1482 1479 1469 1458 1457 1457 1456 1456 1456 1456 1457 1457 1456 1456 1457 1457 1458 1458 1459 1460 1460 1461 1462 1462 1463 1464 1465 1466 1466 1467 1467 1468 1468
1464 1471 1473 1474 1470 1471 1471 1470 1469 1470 1475 1477 1472 1466 1460 1459 1458 1458 1457 1457 1457 1457 1457 1456 1456 1457 1457 1458 1458 1458 1459 1459 1460 1460 1461 1462 1462 1463 1463 1464 1464 1464 1465 1465
1466 1473 1473 1471 1468 1469 1467 1467 1468 1468 1469 1471 1466 1465 1460 1459 1459 1458 1458 1457 1457 1457 1456 1456 1456 1456 1456 1457 1457 1457 1457 1458 1458 1459 1459 1460 1460 1461 1461 1462 1462 1462 1462 1462
1468 1472 1472 1470 1467 1467 1466 1465 1465 1465 1466 1466 1464 1462 1459 1458 1458 1458 1457 1457 1457 1457 1456 1456 1456 1456 1456 1456 1456 1456 1456 1456 1457 1457 1458 1458 1458 1459 1459 1459 1459 1459 1460 1460
1471 1472 1474 1473 1470 1466 1468 1464 1464 1464 1463 1463 1462 1459 1458 1458 1458 1457 1457 1456 1456 1456 1456 1456 1455 1455 1455 1455 1455 1455 1455 1455 1455 1455 1456 1456 1456 1457 1457 1457 1457 1457 1457 1457
1471 1473 1477 1477 1475 1476 1465 1460 1459 1461 1461 1460 1458 1457 1457 1457 1456 1456 1456 1456 1455 1455 1455 1455 1454 1454 1454 1454 1454 1454 1454 1453 1453 1453 1454 1454 1454 1455 1455 1455 1455 1455 1455 1455
1468 1472 1477 1480 1479 1472 1463 1461 1461 1462 1461 1459 1458 1457 1457 1456 1455 1455 1455 1455 1454 1454 1454 1454 1453 1453 1453 1452 1452 1452 1452 1452 1452 1452 1452 1452 1452 1452 1453 1453 1453 1453 1453 1452
1469 1470 1476 1480 1477 1472 1463 1460 1459 1461 1461 1458 1457 1457 1457 1456 1458 1454 1453 1453 1453 1452 1452 1451 1451 1451 1451 1450 1451 1450 1450 1450 1450 1450 1450 1450 1450 1450 1451 1451 1451 1451 1451 1450
1474 1475 1476 1478 1478 1470 1464 1460 1458 1464 1461 1457 1456 1455 1455 1455 1455 1453 1451 1451 1451 1450 1450 1449 1449 1448 1448 1448 1448 1448 1448 1448 1448 1448 1448 1448 1448 1448 1449 1449 1449 1449 1449 1449
1475 1477 1479 1479 1477 1472 1462 1460 1462 1461 1457 1456 1455 1454 1453 1452 1451 1450 1449 1448 1448 1447 1447 1447 1446 1446 1446 1446 1446 1446 1446 1446 1446 1446 1446 1446 1446 1446 1447 1447 1447 1447 1447 1447
1473 1472 1472 1472 1470 1463 1461 1460 1459 1458 1457 1455 1454 1453 1452 1450 1449 1448 1447 1446 1446 1445 1445 1445 1444 1444 1444 1444 1444 1444 1444 1444 1444 1444 1444 1444 1444 1445 1445 1445 1445 1445 1445 1445
1470 1468 1469 1468 1463 1460 1459 1458 1457 1456 1455 1454 1453 1452 1450 1449 1447 1446 1445 1445 1444 1443 1443 1442 1442 1441 1441 1442 1442 1442 1442 1442 1442 1442 1442 1442 1442 1443 1443 1443 1443 1443 1443 1443
1468 1467 1467 1465 1461 1459 1457 1456 1456 1454 1453 1452 1451 1450 1449 1447 1446 1445 1444 1443 1442 1441 1441 1441 1440 1439 1439 1439 1439 1440 1440 1440 1440 1440 1440 1440 1440 1441 1441 1441 1442 1442 1442 1442
1464 1465 1465 1463 1460 1459 1457 1456 1454 1453 1452 1450 1449 1448 1447 1446 1444 1443 1442 1442 1441 1440 1439 1439 1438 1438 1437 1437 1437 1437 1438 1438 1438 1438 1438 1438 1439 1439 1439 1439 1439 1440 1440 1440